OK1TBF-15 Weather Reports


time (UTC)temp
C
wind
direction
speed
KPH
gust
KPH
rain 1hr
cm
rain 24hr
cm
rain mn
cm
humidity
%
barometer
mb
20260505210617 16 0.0 0.0 0.00 0.00 0.00 47 1005.7
20260505205617 16 0.0 0.0 0.00 0.00 0.00 47 1005.8
20260505204617 16 0.0 0.0 0.00 0.00 0.00 48 1006.0
20260505203617 16 0.0 0.0 0.00 0.00 0.00 46 1005.9
20260505202617 16 0.0 0.0 0.00 0.00 0.00 46 1005.9
20260505201617 17 0.0 0.0 0.00 0.00 0.00 44 1005.8
20260505200617 17 0.0 0.0 0.00 0.00 0.00 44 1005.7
20260505195617 17 0.0 0.0 0.00 0.00 0.00 43 1005.7
20260505194617 17 0.0 0.0 0.00 0.00 0.00 43 1005.6
20260505193617 17 0.0 0.0 0.00 0.00 0.00 42 1005.4
20260505192617 18 0.0 0.0 0.00 0.00 0.00 41 1005.3
20260505191617 18 0.0 0.0 0.00 0.00 0.00 41 1005.5
20260505190617 18 0.0 0.0 0.00 0.00 0.00 39 1005.4
20260505185617 18 0.0 0.0 0.00 0.00 0.00 37 1005.3
20260505184617 18 0.0 0.0 0.00 0.00 0.00 36 1005.3
20260505183617 18 0.0 0.0 0.00 0.00 0.00 32 1005.2
20260505182617 18 0.0 0.0 0.00 0.00 0.00 33 1005.2
20260505181617 17 0.0 0.0 0.00 0.00 0.00 33 1005.2
20260505180617 18 0.0 0.0 0.00 0.00 0.00 34 1005.2
20260505175617 18 0.0 0.0 0.00 0.00 0.00 36 1005.2
20260505174617 19 0.0 0.0 0.00 0.00 0.00 33 1005.3
20260505173617 19 0.0 0.0 0.00 0.00 0.00 28 1005.4
20260505172617 20 0.0 0.0 0.00 0.00 0.00 30 1005.4
20260505171617 20 0.0 0.0 0.00 0.00 0.00 29 1005.5
20260505170617 20 0.0 0.0 0.00 0.00 0.00 29 1005.5
20260505165617 20 0.0 0.0 0.00 0.00 0.00 29 1005.6
20260505164617 21 0.0 0.0 0.00 0.00 0.00 27 1005.6
20260505163621 21 0.0 0.0 0.00 0.00 0.00 26 1005.6
20260505162616 21 0.0 0.0 0.00 0.00 0.00 26 1005.7
20260505161615 22 0.0 0.0 0.00 0.00 0.00 23 1005.8
20260505160616 22 0.0 0.0 0.00 0.00 0.00 29 1005.8
20260505152615 22 0.0 0.0 0.00 0.00 0.00 30 1005.8
20260505151616 22 0.0 0.0 0.00 0.00 0.00 31 1005.9
20260505150615 22 0.0 0.0 0.00 0.00 0.00 33 1005.9
20260505140616 23 0.0 0.0 0.00 0.00 0.00 34 1006.5
20260505124615 22 0.0 0.0 0.00 0.00 0.00 37 1007.3
20260505123615 22 0.0 0.0 0.00 0.00 0.00 38 1007.3
20260505121615 22 0.0 0.0 0.00 0.00 0.00 34 1007.6
20260505120615 22 0.0 0.0 0.00 0.00 0.00 34 1007.7
20260505114615 22 0.0 0.0 0.00 0.00 0.00 35 1007.8
20260505113615 22 0.0 0.0 0.00 0.00 0.00 36 1007.7
20260505112615 22 0.0 0.0 0.00 0.00 0.00 36 1007.8
20260505110615 22 0.0 0.0 0.00 0.00 0.00 36 1007.9
20260505101615 20 0.0 0.0 0.00 0.00 0.00 38 1008.2
20260505100615 20 0.0 0.0 0.00 0.00 0.00 38 1008.3
20260505095615 20 0.0 0.0 0.00 0.00 0.00 40 1008.4
20260505094615 20 0.0 0.0 0.00 0.00 0.00 37 1008.5
20260505093615 19 0.0 0.0 0.00 0.00 0.00 38 1008.7
20260505091615 18 0.0 0.0 0.00 0.00 0.00 38 1008.8
20260505090615 18 0.0 0.0 0.00 0.00 0.00 38 1009.0
20260505084615 18 0.0 0.0 0.00 0.00 0.00 38 1009.0
20260505083615 17 0.0 0.0 0.00 0.00 0.00 39 1009.0
20260505082615 17 0.0 0.0 0.00 0.00 0.00 39 1009.1
20260505081615 17 0.0 0.0 0.00 0.00 0.00 39 1009.3
20260505080615 16 0.0 0.0 0.00 0.00 0.00 39 1009.5
20260505075615 16 0.0 0.0 0.00 0.00 0.00 41 1009.6
20260505074615 15 0.0 0.0 0.00 0.00 0.00 44 1009.7
20260505073615 15 0.0 0.0 0.00 0.00 0.00 43 1009.8
20260505072615 15 0.0 0.0 0.00 0.00 0.00 41 1009.7
20260505071615 15 0.0 0.0 0.00 0.00 0.00 40 1009.7
20260505070615 16 0.0 0.0 0.00 0.00 0.00 39 1009.6
20260505065615 15 0.0 0.0 0.00 0.00 0.00 40 1009.5
20260505064615 15 0.0 0.0 0.00 0.00 0.00 40 1009.4
20260505063615 15 0.0 0.0 0.00 0.00 0.00 40 1009.4
20260505062615 15 0.0 0.0 0.00 0.00 0.00 40 1009.4
20260505061615 15 0.0 0.0 0.00 0.00 0.00 40 1009.3
20260505060615 14 0.0 0.0 0.00 0.00 0.00 41 1009.3
20260505055615 14 0.0 0.0 0.00 0.00 0.00 41 1009.3
20260505054615 14 0.0 0.0 0.00 0.00 0.00 40 1009.4
20260505053615 15 0.0 0.0 0.00 0.00 0.00 40 1009.3
20260505052615 14 0.0 0.0 0.00 0.00 0.00 42 1009.3
20260505051615 13 0.0 0.0 0.00 0.00 0.00 41 1009.3
20260505050615 14 0.0 0.0 0.00 0.00 0.00 40 1009.4